Regional Weather Roundup
Issued by NWS

Home | Current Version | Previous Version | Text Only | Print | Product List | Glossary On
Versions: 1 2 3 4 5 6 7 8 9 10 11 12 13 14 15 16 17 18 19 20 21 22 23 24 25 26 27 28 29 30 31 32 33 34 35 36 37 38 39 40 41 42 43 44 45 46 47 48 49 50
000
ASUS43 KTOP 300308
RWRKS

WEATHER ROUNDUP FOR KANSAS
NATIONAL WEATHER SERVICE GOODLAND KS
1000 PM CDT FRI AUG 29 2014

NOTE:  "FAIR" INDICATES FEW OR NO CLOUDS BELOW 12,000 FEET WITH NO
SIGNIFICANT WEATHER AND/OR OBSTRUCTIONS TO VISIBILITY.

KSZ001>006-013>018-027>032-041>047-300400-
NORTHWEST KANSAS

CITY           SKY/WX    TMP DP  RH WIND       PRES   REMARKS
GOODLAND       PTCLDY    67  57  70 CALM      30.03R
HAYS           CLEAR     72  55  56 CALM      29.92R
HILL CITY      CLEAR     69  62  78 CALM      29.93R
RUSSELL        CLEAR     73  60  63 NW7       29.90R
$$

KSZ061>065-074>080-084>089-300400-
SOUTHWEST KANSAS

CITY           SKY/WX    TMP DP  RH WIND       PRES   REMARKS
DODGE CITY     CLEAR     69  54  58 CALM      29.96R
ELKHART          N/A     71  52  51 E8          N/A
GARDEN CITY    CLEAR     73  53  49 NE3       29.98R
GREAT BEND     CLEAR     72  63  73 NW7       29.91R
LIBERAL        CLEAR     77  52  41 CALM      30.00R
PRATT          CLEAR     72  59  64 CALM      29.92R
$$

KSZ066>073-081>083-090>101-300400-
SOUTHEAST KANSAS

CITY           SKY/WX    TMP DP  RH WIND       PRES   REMARKS
CHANUTE        CLEAR     76  66  71 S9        29.88R
COFFEYVILLE    MOCLDY    75  69  81 S5        29.88R
HUTCHINSON     CLEAR     72  67  84 S5        29.89R
MEDICINE LODGE   N/A     77  65  66 SE8       29.89R
NEWTON         CLEAR     70  61  73 S6        29.92R
PARSONS        CLEAR     76  67  73 S3        29.89R
WICHITA INTL   PTCLDY    71  66  84 S7        29.88R
WICHITA JABRA  CLEAR     74  66  76 S9        29.88R
WICHITA MCCONL CLEAR     71  71  98 S8        29.89R
WINFIELD       PTCLDY    73  67  81 S7        29.89R
$$

KSZ007>012-019>026-033>040-048>060-102>105-300400-
NORTHEAST KANSAS

CITY           SKY/WX    TMP DP  RH WIND       PRES   REMARKS
CONCORDIA      CLEAR     72  67  84 SW6       29.87R
EMPORIA        PTCLDY    74  65  73 SW8       29.88R
LAWRENCE       MOCLDY    74  69  85 SE3       29.83R
MANHATTAN      CLEAR     74  64  71 SW6       29.85R
MARYSVILLE     CLEAR     70  68  94 CALM      29.84R
OLATHE IND     MOCLDY    75  65  70 E3        29.86R
OLATHE EXE     MOCLDY    75  65  70 NE3       29.86R
SALINA         PTCLDY    79  63  57 SW7       29.87R
TOPEKA BILLARD CLOUDY    74  72  93 CALM      29.84R
TOPEKA FORBES  PTCLDY    72  69  90 S6        29.84R
$$



USA.gov is the U.S. government's official web portal to all federal, state and local government web resources and services.